Time,TemperatureF,DewpointF,PressureIn,WindDirection,WindDirectionDegrees,WindSpeedMPH,WindSpeedGustMPH,Humidity,HourlyPrecipIn,Conditions,Clouds,dailyrainin,SoftwareType,DateUTC
2013-11-06 00:22:00,65.0,65.0,-100.00,North,-999,-999.0,-999.0,100,0.00,,,0.02,,2013-11-06 06:22:00,
2013-11-06 00:52:00,64.0,64.0,-100.00,North,-999,-999.0,-999.0,100,0.01,,,0.03,,2013-11-06 06:52:00,
2013-11-06 01:21:00,61.0,61.0,-100.00,North,-999,-999.0,-999.0,100,0.05,,,0.07,,2013-11-06 07:21:00,
2013-11-06 01:52:00,60.0,60.0,-100.00,North,-999,-999.0,-999.0,99,0.08,,,0.11,,2013-11-06 07:52:00,
2013-11-06 02:22:00,59.0,59.0,-100.00,North,-999,-999.0,-999.0,100,0.08,,,-99.99,,2013-11-06 08:22:00,
2013-11-06 02:52:00,59.0,59.0,-100.00,North,-999,-999.0,-999.0,100,0.05,,,0.16,,2013-11-06 08:52:00,
2013-11-06 03:22:00,60.0,60.0,-100.00,North,-999,-999.0,-999.0,100,0.03,,,0.18,,2013-11-06 09:22:00,
2013-11-06 03:53:00,60.0,60.0,-100.00,North,-999,-999.0,-999.0,100,0.06,,,0.22,,2013-11-06 09:53:00,
2013-11-06 04:23:00,60.0,60.0,-100.00,North,-999,-999.0,-999.0,100,0.05,,,0.23,,2013-11-06 10:23:00,
2013-11-06 04:52:00,59.0,59.0,-100.00,North,-999,-999.0,-999.0,100,0.02,,,0.24,,2013-11-06 10:52:00,
2013-11-06 05:22:00,59.0,59.0,-100.00,North,-999,-999.0,-999.0,100,0.01,,,0.24,,2013-11-06 11:22:00,
2013-11-06 05:52:00,58.0,58.0,-100.00,North,-999,-999.0,-999.0,100,0.00,,,0.24,,2013-11-06 11:52:00,
2013-11-06 06:22:00,59.0,59.0,-100.00,North,-999,-999.0,-999.0,100,0.00,,,0.24,,2013-11-06 12:22:00,
2013-11-06 06:52:00,59.0,59.0,-100.00,North,-999,-999.0,-999.0,100,0.00,,,0.24,,2013-11-06 12:52:00,
2013-11-06 07:22:00,61.0,61.0,-100.00,North,-999,-999.0,-999.0,100,0.00,,,0.24,,2013-11-06 13:22:00,
2013-11-06 07:52:00,59.0,59.0,-100.00,North,-999,-999.0,-999.0,100,0.00,,,0.24,,2013-11-06 13:52:00,
2013-11-06 08:22:00,61.0,61.0,-100.00,North,-999,-999.0,-999.0,100,0.00,,,0.24,,2013-11-06 14:22:00,
2013-11-06 08:52:00,63.0,63.0,-100.00,North,-999,-999.0,-999.0,100,0.00,,,0.24,,2013-11-06 14:52:00,
2013-11-06 09:53:00,52.0,52.0,-100.00,North,-999,-999.0,-999.0,100,0.06,,,0.30,,2013-11-06 15:53:00,
2013-11-06 10:23:00,52.0,52.0,-100.00,North,-999,-999.0,-999.0,100,0.01,,,0.30,,2013-11-06 16:23:00,
2013-11-06 10:53:00,50.0,50.0,-100.00,North,-999,-999.0,-999.0,100,0.00,,,0.30,,2013-11-06 16:53:00,
2013-11-06 11:23:00,50.0,50.0,-100.00,North,-999,-999.0,-999.0,100,0.00,,,0.30,,2013-11-06 17:23:00,
2013-11-06 11:52:00,50.0,50.0,-100.00,North,-999,-999.0,-999.0,100,0.00,,,0.30,,2013-11-06 17:52:00,
2013-11-06 12:22:00,51.0,51.0,-100.00,North,-999,-999.0,-999.0,100,0.01,,,0.31,,2013-11-06 18:22:00,
2013-11-06 12:52:00,51.0,51.0,-100.00,North,-999,-999.0,-999.0,99,0.01,,,0.31,,2013-11-06 18:52:00,
2013-11-06 13:21:00,52.0,50.0,-100.00,North,-999,-999.0,-999.0,93,0.00,,,0.31,,2013-11-06 19:21:00,
2013-11-06 13:52:00,53.0,50.0,-100.00,North,-999,-999.0,-999.0,88,0.00,,,0.30,,2013-11-06 19:52:00,
2013-11-06 14:22:00,52.0,48.0,-100.00,North,-999,-999.0,-999.0,86,0.00,,,0.30,,2013-11-06 20:22:00,
2013-11-06 14:52:00,55.0,47.0,-100.00,North,-999,-999.0,-999.0,76,0.00,,,0.30,,2013-11-06 20:52:00,
2013-11-06 15:22:00,54.0,48.0,-100.00,North,-999,-999.0,-999.0,77,0.00,,,0.30,,2013-11-06 21:22:00,
2013-11-06 15:54:00,55.0,46.0,-100.00,North,-999,-999.0,-999.0,69,0.00,,,0.30,,2013-11-06 21:54:00,
2013-11-06 16:23:00,55.0,45.0,-100.00,North,-999,-999.0,-999.0,67,0.00,,,0.30,,2013-11-06 22:23:00,
2013-11-06 16:53:00,56.0,43.0,-100.00,North,-999,-999.0,-999.0,61,0.00,,,0.30,,2013-11-06 22:53:00,
2013-11-06 17:22:00,56.0,43.0,-100.00,North,-999,-999.0,-999.0,62,0.00,,,0.30,,2013-11-06 23:22:00,
2013-11-06 17:53:00,55.0,44.0,-100.00,North,-999,-999.0,-999.0,67,0.00,,,0.30,,2013-11-06 23:53:00,
2013-11-06 18:22:00,53.0,43.0,-100.00,North,-999,-999.0,-999.0,68,0.00,,,0.30,,2013-11-07 00:22:00,
2013-11-06 18:52:00,52.0,43.0,-100.00,North,-999,-999.0,-999.0,73,0.00,,,0.30,,2013-11-07 00:52:00,
2013-11-06 19:22:00,51.0,44.0,-100.00,North,-999,-999.0,-999.0,75,0.00,,,0.30,,2013-11-07 01:22:00,
2013-11-06 19:52:00,51.0,43.0,-100.00,North,-999,-999.0,-999.0,75,0.00,,,0.30,,2013-11-07 01:52:00,
2013-11-06 20:22:00,50.0,42.0,-100.00,North,-999,-999.0,-999.0,72,0.00,,,0.30,,2013-11-07 02:22:00,
2013-11-06 21:21:00,50.0,40.0,-100.00,North,-999,-999.0,-999.0,67,0.00,,,0.30,,2013-11-07 03:21:00,
2013-11-06 21:55:00,50.0,37.0,-100.00,North,-999,-999.0,-999.0,61,0.00,,,0.30,,2013-11-07 03:55:00,
2013-11-06 22:24:00,49.0,36.0,-100.00,North,-999,-999.0,-999.0,60,0.00,,,0.30,,2013-11-07 04:24:00,
2013-11-06 22:53:00,48.0,36.0,-100.00,North,-999,-999.0,-999.0,61,0.00,,,0.30,,2013-11-07 04:53:00,
2013-11-06 23:23:00,47.0,35.0,-100.00,North,-999,-999.0,-999.0,62,0.00,,,0.29,,2013-11-07 05:23:00,
2013-11-06 23:54:00,47.0,35.0,-100.00,North,-999,-999.0,-999.0,64,0.00,,,0.29,,2013-11-07 05:54:00,